TimeCST,TemperatureF,Dew PointF,Humidity,Sea Level PressureIn,VisibilityMPH,Wind Direction,Wind SpeedMPH,Gust SpeedMPH,PrecipitationIn,Events,Conditions,WindDirDegrees,DateUTC
12:52 AM,43.0,37.9,82,29.85,10.0,SSW,3.5,-,N/A,,Clear,210,2012-12-08 06:52:00
1:52 AM,46.9,39.0,74,29.84,10.0,Calm,Calm,-,N/A,,Clear,0,2012-12-08 07:52:00
2:52 AM,46.0,39.0,76,29.86,10.0,North,4.6,-,N/A,,Clear,360,2012-12-08 08:52:00
3:52 AM,43.0,37.0,80,29.86,10.0,North,3.5,-,N/A,,Clear,360,2012-12-08 09:52:00
4:52 AM,39.9,36.0,86,29.86,10.0,Calm,Calm,-,N/A,,Clear,0,2012-12-08 10:52:00
5:52 AM,42.1,37.0,82,29.87,10.0,Calm,Calm,-,N/A,,Clear,0,2012-12-08 11:52:00
6:52 AM,41.0,36.0,82,29.90,10.0,Calm,Calm,-,N/A,,Clear,0,2012-12-08 12:52:00
7:52 AM,37.0,35.1,93,29.91,9.0,Calm,Calm,-,N/A,,Clear,0,2012-12-08 13:52:00
8:52 AM,44.1,39.0,82,29.92,10.0,Calm,Calm,-,N/A,,Partly Cloudy,0,2012-12-08 14:52:00
9:00 AM,44.6,39.2,81,29.93,10.0,Calm,Calm,-,N/A,,Overcast,0,2012-12-08 15:00:00
9:52 AM,48.9,41.0,74,29.92,10.0,Calm,Calm,-,N/A,,Overcast,0,2012-12-08 15:52:00
10:52 AM,55.0,43.0,64,29.90,10.0,Calm,Calm,-,N/A,,Overcast,0,2012-12-08 16:52:00
11:08 AM,57.2,44.6,63,29.91,10.0,SSE,5.8,-,N/A,,Overcast,150,2012-12-08 17:08:00
11:18 AM,57.2,46.4,67,29.90,10.0,Variable,4.6,-,N/A,,Mostly Cloudy,0,2012-12-08 17:18:00
11:30 AM,59.0,46.4,63,29.90,10.0,South,6.9,-,N/A,,Scattered Clouds,170,2012-12-08 17:30:00
11:52 AM,61.0,48.9,64,29.86,10.0,SSE,6.9,-,N/A,,Clear,160,2012-12-08 17:52:00
12:52 PM,66.0,52.0,60,29.82,10.0,SSW,8.1,-,N/A,,Clear,200,2012-12-08 18:52:00
1:52 PM,69.1,50.0,51,29.78,10.0,SSW,9.2,-,N/A,,Clear,200,2012-12-08 19:52:00
2:52 PM,71.1,46.0,41,29.75,10.0,SW,8.1,-,N/A,,Clear,230,2012-12-08 20:52:00
3:52 PM,72.0,46.0,40,29.75,10.0,SSW,10.4,-,N/A,,Clear,200,2012-12-08 21:52:00
4:52 PM,69.1,46.9,45,29.75,10.0,South,9.2,-,N/A,,Clear,170,2012-12-08 22:52:00
5:52 PM,63.0,46.9,56,29.76,10.0,South,6.9,-,N/A,,Clear,170,2012-12-08 23:52:00
6:52 PM,61.0,46.9,60,29.77,10.0,ESE,4.6,-,N/A,,Clear,120,2012-12-09 00:52:00
7:52 PM,57.9,46.0,65,29.78,10.0,SSW,3.5,-,N/A,,Clear,200,2012-12-09 01:52:00
8:52 PM,54.0,46.9,77,29.78,10.0,South,5.8,-,N/A,,Clear,170,2012-12-09 02:52:00
9:52 PM,59.0,46.9,64,29.78,10.0,South,9.2,-,N/A,,Clear,190,2012-12-09 03:52:00
10:52 PM,62.1,48.0,60,29.77,10.0,SSW,15.0,-,N/A,,Clear,210,2012-12-09 04:52:00
11:52 PM,60.1,48.9,67,29.76,10.0,SSW,10.4,-,N/A,,Clear,200,2012-12-09 05:52:00